RH
98 97 95 96 95 89 78 69 67 69 70 68 62 57 58 60 65 62 54 56 48 53 49 40 33 33 36 36 39 39 42 43 44 47 51 46 47 44 43 42 48 48 55 57 54 52 45 28 31 33 29 28 29 32
98 98 98 95 88 82 72 74 74 72 67 68 65 61 58 60 61 55 55 57 59 66 50 42 39 39 34 33 33 40 41 41 43 47 45 45 49 49 44 44 43 43 40 43 40 36 30 29 30 31 33 35 37 40
93 91 86 81 76 74 76 77 80 79 75 71 67 61 57 54 52 53 56 66 74 83 58 52 52 52 48 45 44 39 43 45 43 40 43 44 44 42 45 43 41 39 39 38 37 31 32 32 33 34 38 41 42 44
90 87 80 73 71 75 81 84 86 82 78 73 65 59 48 46 50 56 72 84 86 78 76 63 61 57 51 47 43 45 44 45 42 41 42 44 41 40 42 40 41 37 36 37 38 36 37 35 38 39 40 42 44 47
80 75 76 79 77 79 83 85 86 84 80 76 68 56 52 52 53 58 72 74 78 68 70 73 62 59 57 55 52 50 48 44 41 43 47 48 46 47 48 45 41 38 40 44 44 39 40 41 43 45 47 51 54 59
85 87 83 80 81 84 82 86 84 84 85 80 65 57 58 60 61 64 75 74 65 62 59 73 74 72 73 66 57 53 50 47 48 50 54 51 44 44 52 54 40 41 43 44 45 49 51 53 54 56 59 62 64 67
90 90 86 82 81 84 74 82 86 87 85 83 75 68 63 62 65 68 65 64 60 55 50 63 66 66 67 66 62 58 55 52 49 50 49 50 50 52 55 53 47 49 51 54 56 58 60 62 64 64 65 68 70 76
88 92 90 85 86 84 77 83 87 82 86 82 78 71 69 66 67 69 66 62 59 52 47 53 54 56 57 57 54 50 47 46 48 50 51 51 55 57 58 54 56 59 61 63 63 63 64 65 67 71 76 82 86 92
93 92 91 91 91 91 82 74 74 75 74 83 82 75 70 65 63 64 59 55 50 45 44 44 46 50 49 49 48 49 49 52 51 54 56 57 60 61 60 62 62 63 65 67 68 68 70 75 80 84 87 92 96 96
90 97 95 94 92 94 91 87 81 76 73 70 68 65 66 67 63 59 55 50 46 45 43 48 50 52 52 55 56 56 58 60 60 60 63 64 65 65 63 64 64 65 65 69 74 82 86 89 92 94 93 91 88 85
96 97 95 95 95 92 90 90 86 82 78 74 72 75 72 66 60 58 60 58 59 60 61 62 64 65 68 68 69 69 69 69 69 67 70 68 65 65 65 68 72 77 82 85 89 92 92 91 89 87 86 82 76 72
98 96 97 97 95 94 97 94 89 87 84 79 78 77 75 75 75 78 79 77 75 78 76 77 77 75 75 75 75 76 75 73 73 71 71 68 67 70 76 82 86 89 91 91 89 87 84 82 80 76 74 71 65 58
98 98 97 96 98 97 96 96 96 95 93 90 87 86 86 90 94 91 86 83 81 80 81 81 80 77 75 73 72 73 71 72 70 71 69 67 72 83 90 92 90 88 88 86 84 83 80 76 72 66 62 59 56 54
98 99 98 97 96 95 95 94 93 93 94 93 96 97 92 92 89 86 85 83 82 81 78 75 71 70 72 73 75 76 76 77 78 77 76 83 91 94 92 90 88 86 84 82 79 77 74 71 67 63 59 56 53 48
98 99 98 99 98 97 95 94 92 90 89 88 87 90 88 85 84 82 82 81 80 80 79 81 83 86 90 91 93 94 94 90 85 86 90 93 96 96 94 90 87 86 82 80 77 76 74 70 64 58 51 48 43 38
97 98 99 98 97 96 96 96 96 95 94 95 94 96 91 89 90 89 88 86 89 90 94 93 94 96 97 97 96 96 96 93 93 96 96 96 96 95 91 89 87 85 84 83 81 75 69 63 53 48 41 37 33 30
86 88 93 96 98 97 98 98 99 98 98 95 95 94 94 95 96 94 93 93 94 95 97 98 97 97 96 96 95 94 92 91 93 94 95 94 91 87 88 87 91 91 86 80 76 69 58 49 40 37 32 30 29 30
70 75 80 85 89 88 87 91 96 97 98 97 97 97 97 97 96 97 97 97 96 96 96 95 94 95 94 92 92 91 92 92 92 91 91 92 91 90 88 86 80 81 83 80 67 51 41 38 34 35 35 33 32 29
47 53 60 68 68 69 72 79 82 89 95 96 96 96 95 95 92 93 93 91 91 91 91 88 87 86 85 84 81 82 83 81 79 78 79 79 81 84 85 82 73 65 59 52 48 42 40 40 39 37 35 33 28 26
24 30 35 41 46 47 54 61 66 67 74 77 79 80 81 80 80 78 75 73 70 68 68 71 72 72 71 71 68 64 62 59 56 62 65 70 70 67 63 58 56 56 55 51 46 45 42 41 39 38 36 30 28 28
13 14 18 20 25 33 40 49 52 60 60 62 65 66 68 69 68 67 65 62 59 57 56 57 58 58 58 58 57 57 57 58 56 55 56 60 60 60 60 60 61 57 53 51 49 47 45 45 45 40 35 32 28 25
13 12 13 16 21 27 34 36 38 41 46 49 51 52 55 55 55 55 54 53 54 54 54 53 55 55 56 56 55 54 54 54 56 60 63 63 64 64 62 59 58 60 60 57 55 54 53 47 41 38 33 28 26 25
12 12 16 22 24 29 40 39 38 41 44 46 46 48 51 52 53 53 53 53 54 55 56 58 61 63 63 62 62 62 61 62 61 61 60 61 64 66 68 69 69 67 63 59 57 51 46 44 39 32 29 27 25 25
15 17 22 27 31 39 38 40 43 45 48 48 48 49 50 51 51 52 54 54 56 58 61 64 67 70 72 74 75 75 74 74 73 75 76 78 79 78 75 70 66 63 62 58 52 48 40 34 30 29 27 27 28 30
20 32 32 37 38 38 42 43 43 47 51 51 52 55 58 57 59 58 58 58 61 65 69 73 77 80 82 84 83 83 84 86 89 90 86 81 76 73 71 71 68 60 53 47 40 35 32 30 27 28 30 31 32 34
30 34 37 43 52 50 55 57 57 56 56 59 62 62 64 68 69 68 66 70 72 76 80 82 85 87 88 90 91 92 92 91 85 81 78 77 78 77 70 61 52 45 39 34 32 30 28 28 29 31 32 35 37 39
39 43 44 46 48 50 55 61 66 67 68 69 70 75 76 76 75 75 78 81 84 86 89 91 93 93 94 93 92 90 86 82 82 84 83 79 69 57 48 42 39 37 35 32 30 30 29 29 30 33 37 40 40 41
58 61 61 64 63 62 63 68 74 77 78 81 79 83 87 88 90 90 90 92 94 93 93 94 94 93 93 93 91 89 88 86 80 74 62 50 44 42 41 40 37 34 32 31 31 31 31 33 35 38 40 42 43 44
75 78 77 77 77 81 85 88 89 92 96 94 93 95 98 98 98 98 98 98 98 96 97 96 95 94 93 92 90 83 72 58 49 46 44 42 42 42 40 36 33 33 33 33 33 34 35 36 37 41 45 47 47 46
85 84 85 87 87 89 91 93 95 98 98 98 98 98 97 97 98 98 97 95 96 97 96 95 91 86 76 62 53 49 47 44 43 43 44 44 42 37 34 33 32 33 33 34 34 35 36 40 43 48 51 51 49 49
90 90 93 94 94 95 96 97 97 98 98 98 98 98 98 96 96 97 96 93 87 80 73 64 54 50 47 44 43 43 44 44 45 45 43 38 34 32 32 33 34 34 33 34 35 37 41 44 48 52 52 50 48 47
80 85 87 89 91 90 92 94 95 95 94 93 91 86 81 74 70 65 64 62 60 53 50 48 45 45 44 44 45 48 49 48 46 41 35 34 34 35 36 36 37 37 39 42 44 46 49 52 53 53 51 48 46 46
61 63 64 66 64 59 53 51 53 53 52 52 52 52 52 54 56 56 56 57 56 52 50 50 49 48 49 51 51 49 46 42 39 38 37 37 37 39 40 43 45 47 48 50 52 54 55 55 54 52 49 47 45 45